Tracking 19638 objects as of 20-Apr-2019
HD Live streaming from Space Station
objects crossing your sky now

THORAD DELTA 1 DEB

Track THORAD DELTA 1 DEB now!
10-day predictions


NORAD ID: 10393
Int'l Code: 1974-089EJ
Perigee: 1,457.0 km
Apogee: 1,707.8 km
Inclination: 101.6 °
Period: 117.6 minutes
Semi major axis: 7953 km
RCS: 0.0302 m2 (small)
Launch date: November 15, 1974
Source: United States (US)
Launch site: AIR FORCE WESTERN TEST RANGE (AFWTR)

Note: This is SATELLITE DEBRIS
aabbcc
Your satellite tracking list
Your tracking list is empty




NASA's NSSDC Master Catalog

Two Line Element Set (TLE):
1 10393U 74089EJ  19108.21117251 -.00000070 +00000-0 -26221-3 0  9998
2 10393 101.6258 207.9502 0157656 067.3722 324.5257 12.23977607989955
Source of the keplerian elements: AFSPC